Flag for Germany Weather past 2 weeks in Weyhe, Lower Saxony, Germany

Now
66 °F

Sunny.


Feels Like: 66 °F
Forecast: 62 / 74 °F
Wind: 6 mph from Northeast

Location: Bremen Airport

Current Time: Jul 29, 2014 at 7:49:43 AM

Latest Report: Jul 29, 2014 at 7:20 AM


Visibility: 10 mi

Pressure: 29.86 "Hg

Humidity: 83%

Dew point: 61 °F

Location of WeyheLocation

Historic Weather in Weyhe — Graph

°F

Weyhe temperature yesterday

Maximum temperature yesterday: 82 °F (at 4:20 PM)
Minimum temperature yesterday: 57 °F (at 4:20 AM)
Average temperature yesterday: 72 °F

Past Weeks' High & Low Weather Summary

 TemperatureHumidityPressure
High90 °F (Jul 19, 1:50 PM)100% (Jul 14, 6:20 AM)30.18 "Hg (Jul 14, 6:20 AM)
Low54 °F (Jul 17, 4:50 AM)27% (Jul 19, 4:20 PM)29.71 "Hg (Jul 14, 6:20 AM)
Average71 °F71%29.99 "Hg
* Reported Jul 14 6:20 AM — Jul 29 6:50 AM, Weyhe, Weather by CustomWeather, © 2014

Note: Actual official high and low records may vary slightly from our data, if they occured in-between our weather recording intervals... More about our weather records

Advertising

Weyhe weather history for previous 24 hours

 ConditionsComfort  
Time TempWeatherWind HumidityBarometerVisibility
6:50 AM
Jul 29
66 °FPassing clouds.5 mph88%29.86 "HgN/A
6:20 AM66 °FPassing clouds.5 mph83%29.86 "HgN/A
5:50 AM66 °FClear.7 mph83%29.86 "Hg10 mi
5:20 AM66 °FClear.10 mph83%29.86 "Hg10 mi
4:50 AM66 °FClear.8 mph83%29.86 "Hg10 mi
4:20 AM66 °FClear.8 mph83%29.86 "Hg10 mi
3:50 AM68 °FClear.7 mph83%29.86 "Hg10 mi
3:20 AM68 °FClear.7 mph83%29.86 "Hg10 mi
2:50 AM68 °FClear.7 mph83%29.86 "Hg10 mi
2:20 AM68 °FClear.9 mph83%29.86 "Hg10 mi
1:50 AM70 °FClear.7 mph78%29.86 "Hg10 mi
1:20 AM70 °FClear.7 mph78%29.86 "Hg10 mi
12:50 AM70 °FClear.8 mph78%29.86 "Hg10 mi
12:20 AM70 °FClear.7 mph78%29.86 "Hg10 mi
11:20 PM
Jul 28
73 °FClear.12 mph69%29.86 "Hg10 mi
10:50 PM73 °FClear.9 mph69%29.86 "Hg10 mi
10:20 PM75 °FSunny.9 mph65%29.89 "Hg10 mi
9:50 PM75 °FSunny.9 mph65%29.89 "Hg10 mi
9:20 PM77 °FScattered clouds.7 mph54%29.86 "HgN/A
8:50 PM77 °FPartly sunny.7 mph54%29.86 "HgN/A
8:20 PM79 °FSunny.7 mph51%29.86 "Hg10 mi
7:50 PM79 °FSunny.6 mph54%29.86 "Hg10 mi
7:20 PM79 °FPassing clouds.8 mph51%29.86 "HgN/A
6:50 PM81 °FPassing clouds.9 mph51%29.86 "HgN/A
6:20 PM81 °FPassing clouds.10 mph48%29.86 "HgN/A
5:50 PM81 °FSunny.10 mph48%29.86 "Hg10 mi
5:20 PM81 °FPassing clouds.9 mph45%29.86 "HgN/A
4:50 PM81 °FPassing clouds.9 mph48%29.86 "HgN/A
4:20 PM82 °FPassing clouds.8 mph51%29.86 "HgN/A
3:50 PM81 °FScattered clouds.8 mph51%29.89 "HgN/A
3:20 PM79 °FPartly sunny.9 mph54%29.89 "HgN/A
2:50 PM79 °FPartly sunny.9 mph54%29.89 "HgN/A
2:20 PM79 °FPartly sunny.7 mph54%29.89 "HgN/A
1:50 PM79 °FPartly sunny.10 mph58%29.92 "HgN/A
1:20 PM77 °FPartly sunny.10 mph57%29.92 "HgN/A
12:50 PM75 °FBroken clouds.9 mph69%29.92 "HgN/A
12:20 PM75 °FPartly sunny.9 mph65%29.92 "HgN/A
11:50 AM73 °FPartly sunny.7 mph69%29.92 "HgN/A
11:20 AM72 °FPartly sunny.6 mph73%29.95 "HgN/A
10:50 AM70 °FPartly sunny.6 mph83%29.95 "Hg5 mi
10:20 AM66 °FPartly sunny.8 mph88%29.95 "Hg4 mi
9:50 AM68 °FPartly sunny.8 mph88%29.95 "Hg4 mi
9:20 AM68 °FPartly sunny.7 mph88%29.95 "Hg4 mi
8:50 AM68 °FBroken clouds.3 mph94%29.95 "Hg4 mi
8:20 AM66 °FPartly sunny.6 mph94%29.95 "Hg4 mi
7:50 AM64 °FPartly sunny.3 mph100%29.95 "Hg4 mi
7:20 AM64 °FFog.2 mph94%29.95 "Hg2 mi
Weather by CustomWeather, © 2014

See weather overviewHow to use our weather pages